« Back
NWS Peachtree City, Ga » Text Product » GA Regional Weather Roundup


Printer-friendly Version
Current Version              Previous Versions:   1  2  3  4  5  6  7  8  9  

Regional Weather Roundup

290
ASUS42 KFFC 242003
RWRGA
WEATHER ROUNDUP FOR GEORGIA
NATIONAL WEATHER SERVICE PEACHTREE CITY GA
400 PM EDT FRI OCT 24 2014

NOTE: "FAIR" INDICATES FEW OR NO CLOUDS BELOW 12,000 FEET WITH NO
SIGNIFICANT WEATHER AND/OR OBSTRUCTIONS TO VISIBILITY.

* = USE WITH CAUTION. THE STATIONS MARKED WITH AN ASTERISK MAY NOT
REPORT WEATHER SUCH AS PRECIPITATION, FOG, OR THUNDER AND ARE NOT
QUALITY CONTROLLED BY NWS.

THE REMARK "TC" DENOTES TEMPERATURE READING IN DEGREES CELSIUS.

GAZ001>058-242100-
NORTH GEORGIA

CITY           SKY/WX    TMP DP  RH WIND       PRES   REMARKS
ATLANTA        MOSUNNY   73  42  32 VRB5      30.01F
ATHENS         PTSUNNY   70  45  40 S3        30.01S
CHAMBLEE       SUNNY     72  40  31 NW5       30.01S
PEACHTREE CITY SUNNY     73  41  31 VRB3      30.01F
ROME           SUNNY     74  40  29 N10       30.02F
WEST ATLANTA   SUNNY     73  40  30 W7        30.01S
GAINESVILLE    PTSUNNY   68  42  38 W9        30.03S
CARTERSVILLE   SUNNY     72  41  32 VRB3      30.02F


CITY           SKY/WX    TMP DP  RH WIND       PRES   REMARKS
DALTON*        SUNNY     70  43  37 N10       30.03S
LAWRENCEVILLE* SUNNY     73  41  31 W6        30.00F
MARIETTA       MOSUNNY   73  40  30 W8        30.01F
KENNESAW*      SUNNY     70  41  35 NW6       30.04S
$$

GAZ059>098-102>109-242100-
CENTRAL GEORGIA

CITY           SKY/WX    TMP DP  RH WIND       PRES   REMARKS
AUGUSTA-BUSH   MOSUNNY   75  41  29 NE5       29.98F
AUGUSTA-DANIEL MOSUNNY   73  41  31 CALM      29.99F
COLUMBUS       SUNNY     72  42  34 CALM      30.00F
MACON          SUNNY     74  40  29 NE6       29.99F
ROBINS AFB     SUNNY     74  43  33 W3        29.99F


CITY           SKY/WX    TMP DP  RH WIND       PRES   REMARKS
LAGRANGE*      SUNNY     75  43  31 NW6       30.01S
SYLVANIA*      SUNNY     79  48  33 N6        29.99F
MILLEDGEVILLE* SUNNY     73  50  43 CALM      30.00R
$$

GAZ099>101-110>166-242100-
SOUTH GEORGIA

CITY           SKY/WX    TMP DP  RH WIND       PRES   REMARKS
SAVANNAH       SUNNY     75  41  29 VRB3      29.99F
VALDOSTA       SUNNY     77  42  28 CALM      29.97F
ALMA           SUNNY     74  41  30 CALM      29.97F
ST SIMONS      SUNNY     71  51  49 E10       29.99F
ALBANY         SUNNY     75  44  33 W5        30.00S
HUNTER AFB     SUNNY     73  44  34 VRB1      29.96F
MOODY AFB      PTSUNNY   74  41  30 N1        29.97F
BRUNSWICK      SUNNY     73  45  35 E6        29.99F


CITY           SKY/WX    TMP DP  RH WIND       PRES   REMARKS
BAINBRIDGE*    SUNNY     79  48  34 NW6       29.98S
MOULTRIE*      SUNNY     75  45  33 E3        29.98F
VIDALIA*       SUNNY     73  45  35 N3        29.99F
WAYCROSS*      SUNNY     77  48  35 CALM      29.97F
DOUGLAS*       SUNNY     77  41  27 CALM      29.99F
$$



USA.gov is the U.S. government's official web portal to all federal, state and local government web resources and services.